Elk Grove Village, Illinois, United States (60007)
Lat: 42.00N, Lon: 87.97W
Wx Zone: ILZ014
Local Info
Past Weather Observations for Today

NOTE: This archive is for the closest National Weather Service station to Elk Grove Village. Information may differ from the station used for current weather conditions.

Click here for Long-term Archive

Time Weather Temperature Dewpoint Humidity Pressure Winds Precip Visibility
22:51
Partly Cloudy
61°F / 16°C 55°F / 13°C 83% 30.01 in
(1016 mb)
NW 3.5 mph
(NW 6 kph)
- 10SM
21:51
Overcast
Cumulonimbus Clouds Observed
63°F / 17°C 55°F / 13°C 77% 30.04 in
(1017 mb)
N 10.4 mph
(N 17 kph)
0.01 in
(0.25 mm)
10SM
21:15
Overcast
Cumulonimbus Clouds Observed
68°F / 20°C 52°F / 11°C 56% 30.04 in
(1017 mb)
N 25.3 mph
(N 41 kph)
- 10SM
20:51
Mostly Cloudy
70°F / 21°C 55°F / 13°C 60% 30.01 in
(1016 mb)
SSW 8.1 mph
(SSW 13 kph)
- 10SM
19:51
Mostly Cloudy
72°F / 22°C 55°F / 13°C 57% 30.01 in
(1016 mb)
SSW 9.2 mph
(SSW 15 kph)
- 10SM
18:51
Mostly Cloudy
Partly Cloudy
73°F / 23°C 55°F / 13°C 53% 30.01 in
(1016 mb)
SSW 9.2 mph
(SSW 15 kph)
- 10SM
17:51
Partly Cloudy
75°F / 24°C 55°F / 13°C 50% 29.98 in
(1015 mb)
SSW 12.7 mph
(SSW 20 kph)
- 10SM
16:51
Partly Cloudy
77°F / 25°C 55°F / 13°C 47% 29.98 in
(1015 mb)
SSW 13.8 mph
(SSW 22 kph)
- 10SM
15:51
Mostly Cloudy
81°F / 27°C 50°F / 10°C 34% 30.01 in
(1016 mb)
NW 11.5 mph
(NW 19 kph)
- 10SM
14:51
Mostly Cloudy
79°F / 26°C 52°F / 11°C 39% 30.01 in
(1016 mb)
NNW 12.7 mph
(NNW 20 kph)
- 10SM
13:51
Mostly Cloudy
79°F / 26°C 50°F / 10°C 37% 30.01 in
(1016 mb)
NNW 16.1 mph
(NNW 26 kph)
- 10SM
12:51
Mostly Cloudy
81°F / 27°C 52°F / 11°C 37% 30.01 in
(1016 mb)
NW 11.5 mph
(NW 19 kph)
- 10SM
11:51
Mostly Cloudy
79°F / 26°C 52°F / 11°C 39% 30.04 in
(1017 mb)
NW 15 mph
(NW 24 kph)
- 10SM
10:51
Partly Cloudy
77°F / 25°C 52°F / 11°C 42% 30.04 in
(1017 mb)
NW 12.7 mph
(NW 20 kph)
- 10SM
09:51
Partly Cloudy
73°F / 23°C 54°F / 12°C 50% 30.04 in
(1017 mb)
NW 11.5 mph
(NW 19 kph)
- 10SM
08:51
Partly Cloudy
72°F / 22°C 52°F / 11°C 50% 30.04 in
(1017 mb)
NW 15 mph
(NW 24 kph)
- 10SM
07:51
Mostly Cloudy
70°F / 21°C 52°F / 11°C 53% 30.06 in
(1018 mb)
NW 9.2 mph
(NW 15 kph)
- 10SM
06:51
Partly Cloudy
64°F / 18°C 52°F / 11°C 64% 30.04 in
(1017 mb)
WNW 8.1 mph
(WNW 13 kph)
- 10SM
05:51
Partly Cloudy
63°F / 17°C 52°F / 11°C 68% 30.04 in
(1017 mb)
WNW 8.1 mph
(WNW 13 kph)
- 10SM
04:51
Partly Cloudy
59°F / 15°C 52°F / 11°C 77% 30.04 in
(1017 mb)
W 5.8 mph
(W 9 kph)
- 10SM
03:51
Clear
61°F / 16°C 52°F / 11°C 72% 30.04 in
(1017 mb)
WNW 4.6 mph
(WNW 7 kph)
- 10SM
02:51
Clear
61°F / 16°C 52°F / 11°C 72% 30.04 in
(1017 mb)
NW 4.6 mph
(NW 7 kph)
- 10SM
01:51
Clear
63°F / 17°C 52°F / 11°C 68% 30.04 in
(1017 mb)
NNW 5.8 mph
(NNW 9 kph)
- 10SM
00:51
Partly Cloudy
64°F / 18°C 52°F / 11°C 64% 30.04 in
(1017 mb)
NNW 8.1 mph
(NNW 13 kph)
- 10SM
Time Weather Temperature Dewpoint Humidity Pressure Winds Precip Visibility


Weather for websites

WeatherForYou.com, LLC is not responsible for any damages or problems caused by this service. Current weather conditions are obtained from the closest station including government and personal stations which may have varying degrees of accuracy. Weather forecasts are derived from the NOAA NDFD. Like all things, this site belongs to Jesus Christ... He just trusts me to maintain it. If you have any questions or comments email webmaster@weatherforyou.com

Copyright © 2014, WeatherForYou.com LLC. All rights reserved.